Terminal Aerodrome Forecast
Issued by NWS Springfield, MO

Home | Current Version | Previous Version | Text Only | Print | Product List | Glossary On
Versions: 1 2 3 4 5 6 7 8 9 10 11 12 13 14 15 16 17 18 19 20 21 22 23 24 25 26 27 28 29 30 31 32
000
FTUS43 KSGF 172300 AAA
TAFSGF
TAF AMD
KSGF 172353Z 1800/1824 19010KT P6SM FEW150 SCT250
     FM180200 VRB04KT 6SM BR FEW150 SCT250
     FM180500 VRB04KT 2SM BR FEW010 BKN050
     FM181000 VRB03KT 1/2SM FG SCT005 BKN050 PROB30 1810/1815 4SM
      -TSRA BKN050CB
     FM181500 10008KT 6SM BR OVC015
     FM181900 10008KT P6SM SCT030 BKN050=

USA.gov is the U.S. government's official web portal to all federal, state and local government web resources and services.